CAPE
762 632 670 426 111 6 0 0 91 306 324 295 151 275 350 391 322 402 392 424 218 68 55 94 394 701 981 954 1014 1216 1180 1395 1539 1185 981 1051 594 903 1310 831 667 1011 821 875 526 985 109 90 14 0 0 0 0 0 0 0 0 0 0 0 0 0 0
544 775 366 88 92 92 145 122 146 188 436 358 296 98 364 167 155 209 320 317 307 163 41 178 757 1163 1163 1337 985 1201 1325 1146 1458 1342 1212 1130 1078 854 930 853 827 978 712 610 849 557 671 39 0 3 5 0 0 0 0 0 0 0 0 0 0 0 0
617 468 330 262 172 164 214 269 146 220 29 18 106 220 190 174 199 204 283 380 337 172 104 340 747 1216 1497 1414 1378 1339 1474 1384 1376 900 936 727 758 648 861 820 764 1181 550 730 523 430 489 91 26 8 1 0 0 0 0 0 0 0 0 0 0 0 0
686 538 380 323 177 230 147 193 374 311 281 159 141 155 224 61 42 174 399 320 307 181 102 72 115 109 397 992 1370 1380 1521 1464 1199 899 469 420 692 895 711 873 905 746 1180 867 761 868 688 63 21 18 8 2 0 0 0 0 0 0 0 0 0 0 0
784 606 406 418 194 164 182 247 124 93 148 56 143 129 164 83 24 187 292 324 170 186 99 88 51 42 48 220 562 915 1068 1264 1331 979 454 663 806 730 901 609 774 584 804 742 853 985 485 681 136 52 2 4 0 0 0 0 0 0 0 0 0 0 0
862 571 416 284 158 74 90 56 18 84 2 28 136 121 67 13 0 49 134 203 214 210 149 36 4 27 11 56 276 566 1031 889 1033 1142 1178 1113 957 1116 818 761 416 542 200 484 905 343 236 179 25 4 0 0 0 0 0 0 0 0 0 0 0 0 0
951 652 296 257 133 63 48 18 84 3 48 114 82 26 0 0 87 69 152 97 178 112 21 5 9 14 6 5 92 238 269 558 990 967 1136 1107 972 319 201 134 150 122 46 36 104 82 61 47 3 4 8 0 0 0 0 0 0 0 0 0 0 0 0
889 715 276 199 210 81 27 60 45 9 34 84 93 5 0 0 23 46 28 41 4 5 0 0 0 0 0 0 0 8 6 15 70 179 273 201 96 20 9 1 0 0 0 0 0 0 0 0 2 2 1 0 0 0 0 0 0 0 0 0 0 0 0
875 592 265 140 251 204 82 46 16 10 15 35 1 0 0 16 37 5 0 0 0 0 0 0 0 0 0 0 0 0 0 0 0 4 22 13 0 0 0 0 0 0 0 0 0 0 0 0 0 0 0 0 0 0 0 0 0 0 0 0 0 0 0
748 508 211 215 92 62 45 6 0 1 28 2 0 0 0 0 0 0 0 0 0 0 0 0 0 0 0 0 0 0 0 0 0 0 0 0 0 0 0 0 0 0 0 0 0 0 0 0 0 0 0 0 3 0 0 0 0 0 0 0 0 0 0
709 679 488 268 68 39 13 0 0 0 0 0 0 0 0 0 0 0 0 0 0 0 0 0 0 0 0 0 0 0 0 0 0 0 0 0 0 0 0 0 0 0 0 0 0 0 0 0 0 0 0 0 3 13 3 9 0 0 0 0 0 0 0
698 883 838 528 343 58 0 0 0 0 0 0 0 0 0 0 0 0 0 0 0 0 0 0 0 0 0 0 0 0 0 0 0 0 0 0 0 0 0 0 0 0 0 0 0 0 0 0 0 0 0 0 0 10 12 4 0 0 0 0 0 0 0
885 1067 968 466 378 52 0 0 0 0 0 0 0 0 0 0 0 0 0 0 0 0 0 0 0 0 0 0 0 0 0 0 0 0 0 0 0 0 0 0 0 0 0 0 0 0 0 0 0 0 0 0 0 1 0 0 0 0 0 0 0 0 0
705 801 774 642 462 58 0 0 0 0 0 0 0 0 0 0 0 0 0 0 0 0 0 0 0 0 0 0 0 0 0 0 0 0 0 0 0 0 0 0 0 0 0 0 0 0 0 0 0 0 0 0 0 0 0 0 0 0 0 0 0 0 0
607 876 672 796 573 97 0 0 1 0 0 0 0 0 0 0 0 0 0 0 0 0 0 0 0 0 0 0 0 0 0 0 0 0 0 0 0 0 0 0 0 0 0 0 0 0 0 0 0 0 0 0 0 0 0 0 0 0 0 0 0 0 0
744 842 781 773 705 178 0 10 28 9 61 0 0 0 0 0 0 0 0 0 0 0 0 0 0 0 0 0 0 0 0 0 0 0 0 0 0 0 0 0 0 0 0 0 0 0 0 0 0 0 0 0 0 0 0 0 2 0 0 0 0 0 0
882 960 984 764 1107 573 184 187 40 95 63 64 0 0 0 0 0 0 0 0 0 0 0 0 0 0 0 0 0 0 0 0 0 0 0 0 0 0 0 0 0 0 0 0 0 0 0 0 0 0 0 0 0 0 0 0 0 1 1 0 0 0 0
1042 987 957 1034 1292 852 375 297 158 1 46 93 166 36 0 0 0 0 0 0 0 0 0 0 0 0 0 0 0 0 0 0 0 0 0 0 0 0 0 0 0 0 0 0 0 0 0 0 2 1 2 0 0 0 0 0 0 0 3 8 4 0 0
1093 966 895 778 727 1095 815 276 327 270 113 2 44 175 38 0 0 0 0 0 0 0 0 0 0 0 0 0 0 0 0 0 0 0 2 0 0 0 0 6 2 0 0 15 0 0 0 0 0 0 3 1 3 0 2 0 0 2 0 3 2 2 1
1021 987 837 841 933 926 1062 725 439 263 266 242 19 7 36 37 2 0 0 0 0 0 0 0 0 0 0 0 0 0 7 8 0 7 4 3 0 0 8 19 39 4 0 30 53 44 9 0 0 0 0 0 0 0 0 2 3 2 3 0 3 3 2
1224 1176 1241 1082 945 1150 1130 1006 777 407 315 339 274 120 8 35 62 52 8 0 0 0 0 0 0 0 0 0 9 40 55 92 103 118 138 48 34 28 17 12 38 72 24 22 79 35 6 12 1 0 0 0 0 0 0 5 1 1 6 6 1 2 6
1336 1240 1248 1098 1236 938 1081 1013 906 682 430 221 420 304 145 34 108 92 27 22 8 9 19 2 1 10 2 19 137 183 226 223 261 277 302 295 410 370 227 220 186 197 155 32 1 60 664 8 327 5 6 0 0 0 0 0 2 3 4 5 3 6 4
1113 1240 1276 1396 810 1115 1065 1195 1060 929 664 413 335 27 12 206 148 148 84 69 98 202 266 312 691 70 133 388 592 598 656 632 567 722 699 633 745 575 676 487 568 300 24 0 0 0 0 0 0 0 13 8 0 0 0 2 9 0 0 0 2 3 0
1193 1070 1268 1268 925 975 672 964 1040 1122 1073 933 589 576 124 666 562 452 331 421 450 809 803 723 517 466 528 561 773 830 915 995 858 859 941 969 938 903 729 675 664 413 166 46 33 122 0 0 0 0 0 0 7 68 0 1 8 0 0 2 1 0 0
1084 1108 995 1069 960 879 1022 1005 1017 1135 1243 1278 992 864 821 766 799 827 797 725 822 1234 1458 1048 796 552 604 666 852 1120 1135 978 1114 1108 1002 1050 1038 1038 687 308 109 200 336 328 162 1 23 0 0 0 0 0 0 0 0 0 0 0 0 0 0 1 1
1235 1195 1399 1161 980 1192 970 1275 1271 1186 880 1264 1014 842 1138 820 883 1051 1214 1006 986 1209 1460 810 687 516 562 645 628 792 806 996 956 935 872 842 903 1123 824 533 556 523 469 156 244 146 58 134 9 0 0 0 0 0 0 0 0 0 0 0 0 0 0
412 716 1064 1336 1341 1358 1346 1297 1470 1422 1381 911 1032 675 701 858 1053 769 625 954 869 850 647 798 338 2 8 138 0 100 573 747 796 671 676 707 1074 1052 1112 1175 724 580 400 225 220 331 200 135 162 179 168 137 110 10 0 0 24 0 0 0 0 0 0
59 144 265 464 816 1130 1337 1440 1468 1385 1308 1333 920 888 648 746 972 836 985 696 596 436 568 604 786 587 196 11 6 8 8 714 823 919 1100 1033 1009 846 704 787 524 336 561 234 192 283 127 126 146 129 59 0 0 0 0 0 0 0 0 0 0 0 0
0 0 63 281 329 368 586 960 1449 1466 1429 1370 1287 1191 914 742 607 721 705 628 609 494 322 446 620 664 498 245 40 20 61 834 867 828 327 614 645 627 551 579 375 343 292 335 226 167 164 107 91 0 0 0 0 0 0 0 0 0 0 0 0 0 0
0 0 0 0 20 162 327 527 794 1195 1251 1241 1165 1131 992 815 697 571 458 736 474 561 574 503 570 587 491 371 309 91 36 792 544 296 379 30 44 69 46 3 148 139 397 131 143 103 142 120 106 0 0 0 0 0 0 0 0 0 0 0 0 0 0
0 0 0 0 0 7 92 250 400 635 908 1044 1034 948 932 906 1016 1074 982 601 463 383 186 197 529 525 416 327 229 118 59 20 470 117 15 22 40 17 18 0 0 168 353 100 90 174 157 70 4 0 0 0 0 0 0 0 0 0 0 0 0 0 0
0 0 0 0 1 25 85 128 156 322 476 487 466 755 740 894 1110 987 1172 836 531 460 468 457 573 503 341 211 145 239 193 39 44 26 32 20 30 15 0 0 0 49 1 4 73 79 0 0 10 1 0 1 0 0 0 0 0 0 0 0 0 0 0
0 0 0 0 0 0 7 34 110 354 443 400 335 370 580 781 969 999 972 884 846 585 382 356 583 475 200 131 142 219 124 64 168 37 42 0 0 0 0 0 0 0 0 0 0 0 0 0 0 0 0 0 0 1 0 0 0 0 0 0 0 0 0
0 0 0 0 0 0 0 2 18 93 314 248 160 78 246 649 785 917 1044 1152 1137 984 350 394 601 484 262 178 258 150 252 51 137 18 11 5 1 0 0 0 0 0 0 0 0 0 0 0 0 0 0 0 0 0 0 0 0 0 0 0 0 0 0
0 0 0 0 0 0 5 17 32 55 98 245 159 85 63 419 542 797 1016 887 956 828 662 515 384 204 123 307 232 17 2 15 21 15 0 4 0 0 0 0 0 0 0 0 0 0 0 0 0 0 0 0 0 0 0 0 0 0 0 0 0 0 0
0 0 0 0 0 0 2 11 24 45 111 254 241 109 95 155 515 651 633 615 834 709 536 390 243 136 364 192 177 190 0 218 0 257 0 0 0 0 0 0 0 0 0 0 0 0 0 0 0 0 0 0 0 0 0 0 0 0 0 0 0 0 0
0 0 0 0 0 0 0 0 2 12 75 139 159 138 145 263 431 656 307 547 702 757 364 356 357 317 238 231 277 210 0 0 19 2 42 5 0 0 0 0 0 0 0 0 0 0 0 0 0 0 0 0 0 0 0 0 0 0 0 0 0 0 0
Wind_Speed
20 20 19 18 18 nan nan nan nan 17 16 16 14 16 17 18 18 18 18 19 16 nan nan nan 18 16 17 19 20 19 21 16 16 13 16 15 17 17 18 21 18 14 17 19 20 19 19 nan nan nan nan nan nan nan nan nan nan nan nan nan nan nan nan
20 19 19 nan nan nan 16 15 17 18 17 16 15 nan 16 18 18 20 19 21 22 22 nan 23 21 20 20 21 20 19 18 18 18 16 15 15 13 20 17 18 17 17 17 22 21 22 16 nan nan nan nan nan nan nan nan nan nan nan nan nan nan nan nan
20 19 19 19 17 15 17 17 18 18 nan nan 18 19 19 21 21 20 22 23 24 25 25 26 23 22 21 22 22 21 21 19 20 20 18 17 18 15 17 15 20 17 18 22 23 17 14 nan nan nan nan nan nan nan nan nan nan nan nan nan nan nan nan
21 20 20 19 18 18 20 20 19 21 21 22 22 22 21 nan nan 23 23 23 24 25 26 nan 25 23 22 22 22 23 22 20 18 23 19 18 18 12 14 18 22 16 17 16 21 19 19 nan nan nan nan nan nan nan nan nan nan nan nan nan nan nan nan
20 20 20 20 21 22 22 22 23 nan 23 nan 24 25 24 nan nan 24 24 23 24 24 nan nan nan nan nan 23 23 22 21 20 19 20 22 16 19 17 22 22 22 19 16 17 18 24 21 21 26 nan nan nan nan nan nan nan nan nan nan nan nan nan nan
20 22 22 22 23 nan nan nan nan nan nan nan 26 27 nan nan nan nan 24 23 22 22 22 nan nan nan nan nan 24 23 21 19 19 18 17 19 18 19 21 21 16 20 20 25 19 22 25 26 nan nan nan nan nan nan nan nan nan nan nan nan nan nan nan
22 22 22 24 23 nan nan nan nan nan nan 26 nan nan nan nan nan nan 22 nan 21 21 nan nan nan nan nan nan nan 24 22 19 18 17 18 18 17 19 19 20 20 21 nan nan 24 nan nan nan nan nan nan nan nan nan nan nan nan nan nan nan nan nan nan
22 22 23 24 23 nan nan nan nan nan nan nan nan nan nan nan nan nan nan nan nan nan nan nan nan nan nan nan nan nan nan nan nan 16 16 17 nan nan nan nan nan nan nan nan nan nan nan nan nan nan nan nan nan nan nan nan nan nan nan nan nan nan nan
22 23 25 24 23 22 nan nan nan nan nan nan nan nan nan nan nan nan nan nan nan nan nan nan nan nan nan nan nan nan nan nan nan nan nan nan nan nan nan nan nan nan nan nan nan nan nan nan nan nan nan nan nan nan nan nan nan nan nan nan nan nan nan
23 25 25 25 nan nan nan nan nan nan nan nan nan nan nan nan nan nan nan nan nan nan nan nan nan nan nan nan nan nan nan nan nan nan nan nan nan nan nan nan nan nan nan nan nan nan nan nan nan nan nan nan nan nan nan nan nan nan nan nan nan nan nan
22 25 27 26 nan nan nan nan nan nan nan nan nan nan nan nan nan nan nan nan nan nan nan nan nan nan nan nan nan nan nan nan nan nan nan nan nan nan nan nan nan nan nan nan nan nan nan nan nan nan nan nan nan nan nan nan nan nan nan nan nan nan nan
21 23 25 23 22 nan nan nan nan nan nan nan nan nan nan nan nan nan nan nan nan nan nan nan nan nan nan nan nan nan nan nan nan nan nan nan nan nan nan nan nan nan nan nan nan nan nan nan nan nan nan nan nan nan nan nan nan nan nan nan nan nan nan
20 21 23 22 21 nan nan nan nan nan nan nan nan nan nan nan nan nan nan nan nan nan nan nan nan nan nan nan nan nan nan nan nan nan nan nan nan nan nan nan nan nan nan nan nan nan nan nan nan nan nan nan nan nan nan nan nan nan nan nan nan nan nan
17 19 21 21 20 nan nan nan nan nan nan nan nan nan nan nan nan nan nan nan nan nan nan nan nan nan nan nan nan nan nan nan nan nan nan nan nan nan nan nan nan nan nan nan nan nan nan nan nan nan nan nan nan nan nan nan nan nan nan nan nan nan nan
19 19 20 20 20 nan nan nan nan nan nan nan nan nan nan nan nan nan nan nan nan nan nan nan nan nan nan nan nan nan nan nan nan nan nan nan nan nan nan nan nan nan nan nan nan nan nan nan nan nan nan nan nan nan nan nan nan nan nan nan nan nan nan
20 20 21 20 21 24 nan nan nan nan nan nan nan nan nan nan nan nan nan nan nan nan nan nan nan nan nan nan nan nan nan nan nan nan nan nan nan nan nan nan nan nan nan nan nan nan nan nan nan nan nan nan nan nan nan nan nan nan nan nan nan nan nan
18 20 20 20 22 22 22 21 nan nan nan nan nan nan nan nan nan nan nan nan nan nan nan nan nan nan nan nan nan nan nan nan nan nan nan nan nan nan nan nan nan nan nan nan nan nan nan nan nan nan nan nan nan nan nan nan nan nan nan nan nan nan nan
18 18 19 21 22 21 20 20 19 nan nan nan 16 nan nan nan nan nan nan nan nan nan nan nan nan nan nan nan nan nan nan nan nan nan nan nan nan nan nan nan nan nan nan nan nan nan nan nan nan nan nan nan nan nan nan nan nan nan nan nan nan nan nan
18 18 19 20 22 20 19 18 19 18 19 nan nan 18 nan nan nan nan nan nan nan nan nan nan nan nan nan nan nan nan nan nan nan nan nan nan nan nan nan nan nan nan nan nan nan nan nan nan nan nan nan nan nan nan nan nan nan nan nan nan nan nan nan
19 19 19 19 20 21 20 18 18 18 20 19 nan nan nan nan nan nan nan nan nan nan nan nan nan nan nan nan nan nan nan nan nan nan nan nan nan nan nan nan nan nan nan nan nan nan nan nan nan nan nan nan nan nan nan nan nan nan nan nan nan nan nan
19 18 18 18 18 20 20 19 18 19 20 21 21 20 nan nan nan nan nan nan nan nan nan nan nan nan nan nan nan nan nan nan 27 28 28 nan nan nan nan nan nan nan nan nan nan nan nan nan nan nan nan nan nan nan nan nan nan nan nan nan nan nan nan
21 19 18 19 18 19 17 18 18 18 20 21 24 22 23 nan 21 nan nan nan nan nan nan nan nan nan nan nan 28 27 27 27 27 28 28 27 28 29 28 28 28 29 31 nan nan nan 36 nan 30 nan nan nan nan nan nan nan nan nan nan nan nan nan nan
23 23 22 23 21 18 18 19 19 19 20 20 24 nan nan 24 24 25 nan nan nan 29 30 30 35 nan 33 36 33 31 29 28 28 27 27 27 27 26 27 27 28 29 nan nan nan nan nan nan nan nan nan nan nan nan nan nan nan nan nan nan nan nan nan
28 27 28 25 25 25 23 21 22 22 22 23 25 26 25 25 26 27 27 30 31 33 33 37 45 44 41 39 39 36 33 30 28 27 26 25 25 29 28 30 36 40 35 nan nan 34 nan nan nan nan nan nan nan nan nan nan nan nan nan nan nan nan nan
30 31 30 30 29 29 30 29 28 27 27 29 32 29 27 26 27 29 30 31 33 36 36 45 46 47 43 40 38 39 38 35 31 29 28 27 26 27 33 35 31 32 30 30 28 nan nan nan nan nan nan nan nan nan nan nan nan nan nan nan nan nan nan
34 33 33 32 33 31 31 32 31 32 29 30 34 30 32 31 29 32 34 32 35 36 39 50 46 45 43 41 38 37 41 39 37 33 31 29 29 31 33 34 36 37 34 32 30 33 nan 39 nan nan nan nan nan nan nan nan nan nan nan nan nan nan nan
37 37 36 35 35 35 34 34 34 34 34 33 33 34 30 31 32 33 34 33 34 36 38 48 48 nan nan 39 nan nan 39 42 40 38 35 34 34 34 36 39 42 39 38 37 31 31 36 38 38 39 40 39 41 nan nan nan nan nan nan nan nan nan nan
nan 42 40 39 39 38 37 37 37 37 36 36 35 35 36 31 32 35 35 37 37 36 41 43 39 41 39 nan nan nan nan 42 42 41 41 39 37 36 37 41 42 40 39 36 34 31 39 43 42 41 nan nan nan nan nan nan nan nan nan nan nan nan nan
nan nan nan 41 40 39 40 39 38 39 38 37 38 40 38 38 37 33 30 34 37 37 38 42 42 43 43 41 nan nan nan 42 44 46 43 43 40 38 37 38 40 38 39 35 47 47 50 48 nan nan nan nan nan nan nan nan nan nan nan nan nan nan nan
nan nan nan nan nan 42 43 44 44 43 41 40 38 39 39 39 39 38 37 40 39 40 38 42 44 45 46 47 46 nan nan 43 45 44 43 nan nan nan nan nan 39 38 42 46 54 57 54 48 45 nan nan nan nan nan nan nan nan nan nan nan nan nan nan
nan nan nan nan nan nan nan 46 45 46 44 43 42 40 39 38 38 38 43 46 43 43 43 48 48 50 50 49 46 43 nan nan 46 49 nan nan nan nan nan nan nan 42 47 50 nan 52 48 nan nan nan nan nan nan nan nan nan nan nan nan nan nan nan nan
nan nan nan nan nan nan nan 47 46 46 45 46 45 44 44 42 41 41 45 48 48 52 48 55 54 55 50 47 44 43 44 nan nan nan nan nan nan nan nan nan nan nan nan nan nan nan nan nan nan nan nan nan nan nan nan nan nan nan nan nan nan nan nan
nan nan nan nan nan nan nan nan 48 47 47 46 46 47 48 47 46 46 47 50 51 52 53 55 53 52 49 46 44 44 49 nan 52 nan nan nan nan nan nan nan nan nan nan nan nan nan nan nan nan nan nan nan nan nan nan nan nan nan nan nan nan nan nan
nan nan nan nan nan nan nan nan nan nan 49 48 47 nan 48 50 50 50 50 50 50 53 55 54 55 52 49 46 43 44 49 nan 49 nan nan nan nan nan nan nan nan nan nan nan nan nan nan nan nan nan nan nan nan nan nan nan nan nan nan nan nan nan nan
nan nan nan nan nan nan nan nan nan nan nan 51 49 nan nan 50 51 51 52 53 53 55 57 62 59 55 49 44 46 nan nan nan nan nan nan nan nan nan nan nan nan nan nan nan nan nan nan nan nan nan nan nan nan nan nan nan nan nan nan nan nan nan nan
nan nan nan nan nan nan nan nan nan nan 56 54 53 52 nan 53 52 52 50 52 55 55 56 59 60 56 51 48 47 41 nan 46 nan 45 nan nan nan nan nan nan nan nan nan nan nan nan nan nan nan nan nan nan nan nan nan nan nan nan nan nan nan nan nan
nan nan nan nan nan nan nan nan nan nan nan 57 56 56 55 55 54 54 52 47 50 52 55 57 58 58 56 54 49 47 nan nan nan nan nan nan nan nan nan nan nan nan nan nan nan nan nan nan nan nan nan nan nan nan nan nan nan nan nan nan nan nan nan
Wind_Direction
270 269 272 267 267 nan nan nan nan 283 288 285 285 276 277 277 270 270 265 262 268 nan nan nan 291 286 283 277 274 269 278 276 281 281 285 295 299 297 295 288 282 292 297 288 285 281 279 nan nan nan nan nan nan nan nan nan nan nan nan nan nan nan nan
272 270 267 nan nan nan 271 274 274 275 275 273 273 nan 272 272 275 272 268 267 264 270 nan 283 289 289 286 283 280 275 273 273 273 272 270 279 287 275 289 277 288 294 303 299 288 289 280 nan nan nan nan nan nan nan nan nan nan nan nan nan nan nan nan
268 265 264 266 269 274 272 272 274 278 nan nan 283 277 276 276 270 271 273 269 272 271 272 278 280 281 283 285 277 270 268 267 268 271 268 264 263 266 270 290 295 287 292 291 290 283 290 nan nan nan nan nan nan nan nan nan nan nan nan nan nan nan nan
267 265 270 277 282 287 287 289 289 289 291 289 291 288 283 nan nan 274 272 275 275 274 277 nan 275 275 278 278 276 270 265 262 268 269 265 265 268 278 293 275 273 276 267 272 286 287 275 nan nan nan nan nan nan nan nan nan nan nan nan nan nan nan nan
269 270 277 284 291 294 295 296 293 nan 297 nan 300 297 293 nan nan 283 282 279 276 276 nan nan nan nan nan 272 271 267 264 263 262 273 275 280 281 285 275 278 280 279 290 268 264 279 284 276 285 nan nan nan nan nan nan nan nan nan nan nan nan nan nan
271 275 280 287 293 nan nan nan nan nan nan nan 303 299 nan nan nan nan 287 283 281 277 274 nan nan nan nan nan 265 262 258 259 261 263 268 270 273 275 275 278 285 287 281 282 286 275 271 277 nan nan nan nan nan nan nan nan nan nan nan nan nan nan nan
273 278 283 291 295 nan nan nan nan nan nan 305 nan nan nan nan nan nan 282 nan 283 283 nan nan nan nan nan nan nan 259 257 253 257 260 269 272 272 272 275 279 281 275 nan nan 271 nan nan nan nan nan nan nan nan nan nan nan nan nan nan nan nan nan nan
277 281 287 290 294 nan nan nan nan nan nan nan nan nan nan nan nan nan nan nan nan nan nan nan nan nan nan nan nan nan nan nan nan 261 267 272 nan nan nan nan nan nan nan nan nan nan nan nan nan nan nan nan nan nan nan nan nan nan nan nan nan nan nan
277 283 286 289 289 290 nan nan nan nan nan nan nan nan nan nan nan nan nan nan nan nan nan nan nan nan nan nan nan nan nan nan nan nan nan nan nan nan nan nan nan nan nan nan nan nan nan nan nan nan nan nan nan nan nan nan nan nan nan nan nan nan nan
279 282 285 286 nan nan nan nan nan nan nan nan nan nan nan nan nan nan nan nan nan nan nan nan nan nan nan nan nan nan nan nan nan nan nan nan nan nan nan nan nan nan nan nan nan nan nan nan nan nan nan nan nan nan nan nan nan nan nan nan nan nan nan
274 276 281 286 nan nan nan nan nan nan nan nan nan nan nan nan nan nan nan nan nan nan nan nan nan nan nan nan nan nan nan nan nan nan nan nan nan nan nan nan nan nan nan nan nan nan nan nan nan nan nan nan nan nan nan nan nan nan nan nan nan nan nan
266 271 275 279 282 nan nan nan nan nan nan nan nan nan nan nan nan nan nan nan nan nan nan nan nan nan nan nan nan nan nan nan nan nan nan nan nan nan nan nan nan nan nan nan nan nan nan nan nan nan nan nan nan nan nan nan nan nan nan nan nan nan nan
269 274 276 279 283 nan nan nan nan nan nan nan nan nan nan nan nan nan nan nan nan nan nan nan nan nan nan nan nan nan nan nan nan nan nan nan nan nan nan nan nan nan nan nan nan nan nan nan nan nan nan nan nan nan nan nan nan nan nan nan nan nan nan
285 281 282 283 284 nan nan nan nan nan nan nan nan nan nan nan nan nan nan nan nan nan nan nan nan nan nan nan nan nan nan nan nan nan nan nan nan nan nan nan nan nan nan nan nan nan nan nan nan nan nan nan nan nan nan nan nan nan nan nan nan nan nan
286 277 277 279 280 nan nan nan nan nan nan nan nan nan nan nan nan nan nan nan nan nan nan nan nan nan nan nan nan nan nan nan nan nan nan nan nan nan nan nan nan nan nan nan nan nan nan nan nan nan nan nan nan nan nan nan nan nan nan nan nan nan nan
273 272 274 273 275 276 nan nan nan nan nan nan nan nan nan nan nan nan nan nan nan nan nan nan nan nan nan nan nan nan nan nan nan nan nan nan nan nan nan nan nan nan nan nan nan nan nan nan nan nan nan nan nan nan nan nan nan nan nan nan nan nan nan
263 266 267 265 270 273 275 278 nan nan nan nan nan nan nan nan nan nan nan nan nan nan nan nan nan nan nan nan nan nan nan nan nan nan nan nan nan nan nan nan nan nan nan nan nan nan nan nan nan nan nan nan nan nan nan nan nan nan nan nan nan nan nan
259 264 264 263 268 271 273 274 274 nan nan nan 279 nan nan nan nan nan nan nan nan nan nan nan nan nan nan nan nan nan nan nan nan nan nan nan nan nan nan nan nan nan nan nan nan nan nan nan nan nan nan nan nan nan nan nan nan nan nan nan nan nan nan
261 265 267 271 275 271 271 274 274 273 275 nan nan 283 nan nan nan nan nan nan nan nan nan nan nan nan nan nan nan nan nan nan nan nan nan nan nan nan nan nan nan nan nan nan nan nan nan nan nan nan nan nan nan nan nan nan nan nan nan nan nan nan nan
265 268 270 268 267 273 274 273 273 275 277 281 nan nan nan nan nan nan nan nan nan nan nan nan nan nan nan nan nan nan nan nan nan nan nan nan nan nan nan nan nan nan nan nan nan nan nan nan nan nan nan nan nan nan nan nan nan nan nan nan nan nan nan
265 265 267 269 270 272 274 275 276 274 277 282 282 285 nan nan nan nan nan nan nan nan nan nan nan nan nan nan nan nan nan nan 299 295 289 nan nan nan nan nan nan nan nan nan nan nan nan nan nan nan nan nan nan nan nan nan nan nan nan nan nan nan nan
260 261 265 269 270 277 274 277 279 277 278 279 279 281 281 nan 284 nan nan nan nan nan nan nan nan nan nan nan 299 298 298 298 300 302 299 294 285 278 277 279 280 281 282 nan nan nan 264 nan 269 nan nan nan nan nan nan nan nan nan nan nan nan nan nan
260 260 260 266 273 275 279 281 280 280 280 279 278 nan nan 283 286 287 nan nan nan 288 289 290 286 nan 292 296 297 295 293 295 296 298 301 299 292 284 276 274 276 276 nan nan nan nan nan nan nan nan nan nan nan nan nan nan nan nan nan nan nan nan nan
263 265 266 263 267 278 282 278 278 277 276 277 272 270 274 284 285 286 289 290 291 289 287 281 280 278 277 286 294 294 294 292 290 290 293 295 293 286 268 254 253 252 254 nan nan 274 nan nan nan nan nan nan nan nan nan nan nan nan nan nan nan nan nan
262 264 267 270 272 270 269 271 272 273 273 274 275 275 279 283 284 283 282 285 289 286 284 278 284 282 282 283 282 289 292 291 289 286 285 287 287 288 282 268 263 267 271 274 277 nan nan nan nan nan nan nan nan nan nan nan nan nan nan nan nan nan nan
261 262 261 265 266 267 269 271 271 272 275 274 276 283 281 272 275 282 283 284 284 286 284 285 286 285 285 287 285 279 288 289 289 287 283 281 275 272 275 274 273 270 271 278 281 276 nan 267 nan nan nan nan nan nan nan nan nan nan nan nan nan nan nan
256 260 263 263 262 264 265 265 266 267 268 270 273 270 276 284 282 281 283 284 283 280 280 286 287 nan nan 285 nan nan 285 286 288 287 283 276 271 270 270 269 265 264 265 273 272 268 271 272 273 273 275 276 275 nan nan nan nan nan nan nan nan nan nan
nan 259 258 260 262 262 262 263 266 267 268 269 270 273 271 275 277 269 269 271 273 273 271 280 288 290 289 nan nan nan nan 282 282 281 280 279 275 272 273 271 270 266 267 274 272 270 279 282 284 282 nan nan nan nan nan nan nan nan nan nan nan nan nan
nan nan nan 261 262 263 265 267 269 270 270 270 272 272 273 272 272 278 275 274 272 276 279 290 290 288 286 288 nan nan nan 282 281 279 277 278 274 271 270 274 271 267 268 270 268 271 280 285 nan nan nan nan nan nan nan nan nan nan nan nan nan nan nan
nan nan nan nan nan 266 269 271 274 274 274 274 272 274 275 274 274 280 282 278 277 278 282 287 290 287 287 289 285 nan nan 281 279 279 279 nan nan nan nan nan 259 265 266 264 268 274 277 282 279 nan nan nan nan nan nan nan nan nan nan nan nan nan nan
nan nan nan nan nan nan nan 272 272 274 275 274 274 273 271 271 271 273 276 276 278 280 283 284 288 288 289 291 288 284 nan nan 278 277 nan nan nan nan nan nan nan 265 262 261 nan 274 278 nan nan nan nan nan nan nan nan nan nan nan nan nan nan nan nan
nan nan nan nan nan nan nan 270 271 271 273 275 275 274 273 272 272 273 274 277 277 275 276 279 285 287 288 289 285 280 279 nan nan nan nan nan nan nan nan nan nan nan nan nan nan nan nan nan nan nan nan nan nan nan nan nan nan nan nan nan nan nan nan
nan nan nan nan nan nan nan nan 270 272 272 273 274 275 276 275 275 273 273 277 277 279 278 276 280 285 287 286 286 278 276 nan 272 nan nan nan nan nan nan nan nan nan nan nan nan nan nan nan nan nan nan nan nan nan nan nan nan nan nan nan nan nan nan
nan nan nan nan nan nan nan nan nan nan 273 275 275 nan 276 277 276 276 276 277 276 277 276 278 278 284 284 284 283 274 270 nan 274 nan nan nan nan nan nan nan nan nan nan nan nan nan nan nan nan nan nan nan nan nan nan nan nan nan nan nan nan nan nan
nan nan nan nan nan nan nan nan nan nan nan 278 278 nan nan 278 278 279 279 278 276 276 275 276 275 278 279 279 275 nan nan nan nan nan nan nan nan nan nan nan nan nan nan nan nan nan nan nan nan nan nan nan nan nan nan nan nan nan nan nan nan nan nan
nan nan nan nan nan nan nan nan nan nan 279 280 280 280 nan 280 279 279 279 278 278 279 277 273 275 274 275 271 265 263 nan 261 nan 267 nan nan nan nan nan nan nan nan nan nan nan nan nan nan nan nan nan nan nan nan nan nan nan nan nan nan nan nan nan
nan nan nan nan nan nan nan nan nan nan nan 278 279 279 279 280 280 277 273 276 276 277 275 275 273 272 268 264 261 258 nan nan nan nan nan nan nan nan nan nan nan nan nan nan nan nan nan nan nan nan nan nan nan nan nan nan nan nan nan nan nan nan nan